Airfield :
LOGIN :

Register | Disclaimer

   EN    FR    IT 

 










Legend :    VFR   Marginal VFR   IFR   Intensive IFR   Very Intensive IFR
Visi :
Ceiling :
>= 8 km
>= 3000ft
5 to 8 km
1000 to 3000 ft
1500m to 5 km
500 to 1000 ft
800 to 1500m
200 to 500 ft
< 800m
< 200 ft
Symbols :   Thunderstorms  Fog  Heavy snow  Heavy precipitations  Wind > 20 kt
SIGMETs :     Misc.  Thunderstorms  Icing  Turbulence  Mountain Waves  Volcanic Ashes







- Airport Elevation : 39 ft
- IATA code : ANR


EBAW - Anvers / Antwerpen Deurne

CURRENT METAR :
  • 160250Z AUTO 11003KT CAVOK 15/11 Q1014

EXPIRED METARs :
  • 160220Z AUTO 10001KT CAVOK 15/11 Q1014
  • 160150Z AUTO 09001KT CAVOK 16/12 Q1014
  • 160120Z AUTO VRB01KT CAVOK 16/11 Q1014
  • 160050Z AUTO 12001KT CAVOK 17/12 Q1014
  • 160020Z AUTO 10001KT CAVOK 18/12 Q1014

TAF TAF EBAW
Valid from the 16 at 03:00 until the 16 at 12:00 UTC


160200Z 1603/1612 VRB03KT CAVOK
No reported NOTAMs for that airfield.



MET'MAP, your aeronautical weather chart ! - Copyright ORBIFLY December 2007 - Disclaimer

ORBIFLY MET'MAP TEAM :

Programming & Development : Alexandra Zaïnal
Concept & Development : Baudouin d'Aumeries
Co-Development & Prog : Marc-Olivier Méhu
Technical & hardware support : Manuel Goepfert

Contact : metmap@orbifly.com




SOURCES & CREDITS :

   NOAA